This demonstration page uses our WeatherBlox Daily Observations layout. Learn more.

Left ArrowRight Arrow

39.29038, -76.61219

Hourly Observations for July 22, 2020

Temp ( °F °C ) Dew Point ( °F °C ) Humidity (%) Winds ( mph kmh ) Pressure ( in mb ) Visibility ( mi km ) Precip ( " mm )
12:54 am 00:54 Cloudy with Light Rain 77 25 73 22.8 88 88 SSW 3 6 30.02 1017 10 16 0.00 0.00
1:54 am 01:54 Cloudy 76 24.4 73 22.8 91 91 SW 5 7 30.03 1017 10 16 0.00 0.00
2:54 am 02:54 Cloudy 76 24.4 73 22.8 91 91 SW 5 7 30.02 1017 10 16 0.00 0.00
3:54 am 03:54 Mostly Cloudy 76 24.4 73 22.8 91 91 SW 6 9 30.01 1016 10 16 0.00 0.00
4:34 am 04:34 Mostly Cloudy 75 23.9 73 22.8 94 94 Calm 30.00 1016 10 16 0.00 0.00
4:54 am 04:54 Mostly Cloudy 75 23.9 72 22.2 90 90 WSW 3 6 30.01 1016 7 11 0.00 0.00
5:54 am 05:54 Mostly Cloudy with Mist and Fog 75 23.9 73 22.8 94 94 Calm 30.00 1016 5 8 0.00 0.00
6:54 am 06:54 Mostly Cloudy with Mist and Fog 75 23.9 73 22.8 94 94 W 3 6 30.01 1016 6 10 0.00 0.00
7:54 am 07:54 Mostly Cloudy 78 25.6 73 22.8 85 85 WSW 3 6 30.02 1017 10 16 0.00 0.00
8:54 am 08:54 Mostly Cloudy 81 27.2 73 22.8 77 77 S 3 6 30.04 1017 10 16 0.00 0.00
9:54 am 09:54 Mostly Cloudy 84 28.9 74 23.3 72 72 SSW 8 13 30.05 1018 10 16 0.00 0.00
10:54 am 10:54 Mostly Cloudy 86 30 74 23.3 67 67 VRB 3 6 30.04 1017 10 16 0.00 0.00
11:54 am 11:54 Partly Cloudy 90 32.2 74 23.3 59 59 S 5 7 30.03 1017 10 16 0.00 0.00
12:54 pm 12:54 Partly Cloudy 92 33.3 73 22.8 54 54 VRB 3 6 30.01 1016 10 16 0.00 0.00
1:54 pm 13:54 Partly Cloudy 94 34.4 74 23.3 52 52 SSE 6 9 29.98 1015 10 16 0.00 0.00
2:54 pm 14:54 Mostly Cloudy 95 35 74 23.3 51 51 ESE 8 13 29.98 1015 10 16 0.00 0.00
3:54 pm 15:54 Mostly Cloudy 90 32.2 77 25 66 66 SSE 7 11 29.97 1015 10 16 0.00 0.00
4:37 pm 16:37 Cloudy with Thunderstorms 88 31.1 77 25 70 70 SW 12 19 29.97 1015 10 16 0.00 0.00
5:13 pm 17:13 Cloudy with Strong Thunderstorms 72 22.2 69 20.6 91 91 NNE 8 13 30.06 1018 3 5 0.52 13.21
5:24 pm 17:24 Cloudy with Thunderstorms 73 22.8 70 21.1 90 90 N 7 11 30.05 1018 3 5 0.61 15.49
5:54 pm 17:54 Cloudy with Thunderstorms 74 23.3 70 21.1 88 88 WSW 7 11 30.06 1018 9 14 0.61 15.49
6:27 pm 18:27 Cloudy with Rain 74 23.3 71 21.7 91 91 SSW 6 9 30.06 1018 6 10 0.08 2.03
6:30 pm 18:30 Cloudy with Thunderstorms 74 23.3 71 21.7 91 91 SSW 6 9 30.06 1018 6 10 0.09 2.29
6:54 pm 18:54 Mostly Cloudy with Light Rain 74 23.3 71 21.7 91 91 S 5 7 30.04 1017 10 16 0.13 3.30
7:54 pm 19:54 Mostly Cloudy 74 23.3 71 21.7 91 91 SW 5 7 30.03 1017 10 16 0.02 0.51
8:54 pm 20:54 Mostly Cloudy 73 22.8 70 21.1 90 90 W 6 9 30.02 1017 10 16 0.00 0.00
9:54 pm 21:54 Mostly Cloudy 74 23.3 71 21.7 91 91 Calm 30.04 1017 10 16 0.00 0.00
10:54 pm 22:54 Partly Cloudy 73 22.8 71 21.7 94 94 Calm 30.04 1017 10 16 0.00 0.00
11:54 pm 23:54 Partly Cloudy 73 22.8 71 21.7 94 94 SW 5 7 30.04 1017 10 16 0.00 0.00

Powered by AerisWeather